www.pogodaiklimat.ru
ПОГОДА в Рёрус аэропорту
Время
(UTC), дата
16 9.10
17 9.10
18 9.10
19 9.10
20 9.10
21 9.10
22 9.10
23 9.10
00 10.10
01 10.10
02 10.10
03 10.10
04 10.10
05 10.10
06 10.10
07 10.10
08 10.10
09 10.10
10 10.10
11 10.10
12 10.10
13 10.10
14 10.10
15 10.10
16 10.10
17 10.10
18 10.10
19 10.10
20 10.10
21 10.10
22 10.10
23 10.10
00 11.10
01 11.10
02 11.10
03 11.10
04 11.10
05 11.10
06 11.10
07 11.10
08 11.10
09 11.10
10 11.10
11 11.10
12 11.10
13 11.10
14 11.10
15 11.10
16 11.10
17 11.10
18 11.10
19 11.10
20 11.10
21 11.10
22 11.10
23 11.10
00 12.10
01 12.10
02 12.10
03 12.10
04 12.10
05 12.10
06 12.10
07 12.10
08 12.10
09 12.10
10 12.10
11 12.10
12 12.10
13 12.10
14 12.10
15 12.10
16 12.10
17 12.10
18 12.10
19 12.10
20 12.10
21 12.10
22 12.10
23 12.10
00 13.10
01 13.10
02 13.10
03 13.10
04 13.10
05 13.10
06 13.10
07 13.10
08 13.10
09 13.10
10 13.10
11 13.10
12 13.10
13 13.10
14 13.10
15 13.10
16 13.10
17 13.10
18 13.10
19 13.10
20 13.10
21 13.10
22 13.10
23 13.10
00 14.10
01 14.10
02 14.10
03 14.10
04 14.10
05 14.10
06 14.10
07 14.10
08 14.10
09 14.10
10 14.10
11 14.10
12 14.10
13 14.10
14 14.10
15 14.10
16 14.10
17 14.10
18 14.10
19 14.10
20 14.10
21 14.10
22 14.10
23 14.10
00 15.10
01 15.10
02 15.10
03 15.10
04 15.10
05 15.10
06 15.10
07 15.10
08 15.10
09 15.10
10 15.10
11 15.10
12 15.10
13 15.10
14 15.10
15 15.10
16 15.10
17 15.10
18 15.10
19 15.10
20 15.10
21 15.10
22 15.10
23 15.10
00 16.10
01 16.10
02 16.10
03 16.10
04 16.10
05 16.10
06 16.10
07 16.10
08 16.10
09 16.10
10 16.10
11 16.10
12 16.10
13 16.10
14 16.10
15 16.10
16 16.10
Ветер
(напр.,м/с)
Видим. Явления Облачность Т
(С)
Тd
(С)
f
(%)
Тe
(С)
Тes
(С)
Комфортность P
(гПа)
Po
(гПа)
Тmin
(С)
Tmax
(С)
R
(мм)
R24
(мм)
S
(см)
Ю 3
{8}
н/о н/о +1.8 -0.4 85 -2 -2 по сезону 997.0 923.2
В 4
{8}
н/о н/о +1.5 +0.1 90 -4 -4 прохладно 997.1 923.2
В 2
{11}
25 км 8/8 1000 м
[Sc]
+1.5 -0.1 89 -2 -2 по сезону 997.1 923.2 +0.9 +3.8
ЮВ 3
{5}
н/о н/о +1.2 -0.2 90 -3 -3 прохладно 997.1 923.1
В 1
{4}
н/о н/о +0.7 -0.3 93 -1 -1 по сезону 997.3 923.1
С 1
{2}
н/о н/о 0.0 -0.1 99 -2 -2 по сезону 997.6 923.2
штиль 0
{1}
н/о н/о -1.3 -1.3 100 -3 -3 прохладно 997.8 923.1
штиль 0
{1}
н/о н/о -0.9 -0.9 100 -2 -2 по сезону 997.7 923.1
В 1
{5}
н/о н/о -1.1 -1.1 100 -3 -3 прохладно 997.8 923.1
ЮВ 1
{2}
н/о н/о -2.7 -2.7 100 -5 -5 холодно 998.1 923.1
штиль 0
{2}
н/о н/о -2.4 -2.4 100 -4 -4 прохладно 997.7 922.7
штиль 0
{1}
н/о н/о -1.8 -1.8 100 -3 -3 прохладно 997.5 922.6
штиль 0
{1}
н/о н/о -1.5 -1.5 100 -3 -3 прохладно 997.1 922.4
штиль 0
{1}
н/о н/о -1.3 -1.3 100 -3 -3 прохладно 997.0 922.4
Ю 1
{2}
30 км 10/10 600 м
[Sc]
-0.8 -0.8 100 -3 -3 прохладно 997.0 922.5 -3.0 +1.5 0
Ю 1
{2}
н/о н/о -0.1 -0.1 100 -2 -2 по сезону 996.9 922.6
штиль 0
{1}
н/о н/о +1.0 +1.0 100 -0 -0 по сезону 996.7 922.7
ЮЗ 1
{2}
н/о н/о +2.3 +1.4 94 +1 +1 по сезону 996.4 922.8
ЮЗ 2
{4}
н/о н/о +3.5 +1.4 86 +1 +1 по сезону 996.1 922.8
З 3
{4}
н/о н/о +3.7 +1.1 83 -0 -0 по сезону 995.9 922.6
ЮЗ 3
{4}
40 км 4/4 300 м
[Sc]
+4.8 +1.3 78 +1 +3 по сезону 995.5 922.6
ЮЗ 3
{5}
н/о н/о +4.7 +1.6 80 +1 +1 по сезону 995.4 922.5
ЮЗ 1
{4}
н/о н/о +4.9 +1.6 79 +4 +4 по сезону 995.2 922.3
З 2
{4}
н/о н/о +3.6 +0.8 82 +1 +1 по сезону 995.5 922.3
СЗ 1
{4}
н/о н/о +2.0 +0.8 92 0 0 по сезону 995.9 922.2
Ю 1
{2}
н/о н/о -1.6 -1.7 99 -4 -4 прохладно 996.9 922.2
штиль 0
{5}
30 км 5/0 2000 м
[Ac As]
-2.1 -2.1 100 -4 -4 прохладно 996.9 922.0 -2.2 +5.3
штиль 0
{1}
н/о н/о -2.5 -2.5 100 -4 -4 прохладно 997.0 922.0
В 1
{2}
н/о н/о -3.1 -3.1 100 -6 -6 холодно 997.1 922.0
Ю 1
{2}
н/о н/о -4.9 -5.4 96 -7 -7 холодно 997.3 921.7
штиль 0
{2}
н/о н/о -3.8 -3.8 100 -5 -5 холодно 997.0 921.6
ЮВ 1
{2}
н/о н/о -3.7 -3.7 100 -6 -6 холодно 996.8 921.5
штиль 0
{2}
н/о н/о -4.6 -4.6 100 -6 -6 холодно 997.3 921.7
Ю 1
{1}
н/о н/о -5.3 -5.5 98 -8 -8 очень
холодно
997.4 921.7
Ю 1
{2}
н/о н/о -4.7 -4.7 100 -7 -7 холодно 997.3 921.8
ЮВ 1
{2}
н/о н/о -3.6 -3.6 100 -6 -6 холодно 996.9 921.6
ЮВ 1
{1}
н/о н/о -2.9 -2.9 100 -5 -5 холодно 996.8 921.7
ЮВ 2
{2}
н/о н/о -2.2 -2.2 100 -6 -6 холодно 996.4 921.6
В 1
{2}
30 км 10/0
[Ac As]
-1.6 -1.6 100 -4 -4 прохладно 996.2 921.6 -5.3 -1.6 0
З 1
{2}
н/о н/о -1.1 -1.1 100 -3 -3 прохладно 996.0 921.5
Ю 1
{4}
н/о н/о +0.5 +0.5 100 -2 -2 по сезону 995.6 921.5
ЮВ 1
{2}
н/о н/о +1.3 +1.3 100 -1 -1 по сезону 995.3 921.4
В 1
{2}
н/о н/о +3.3 +2.4 94 +2 +2 по сезону 994.5 921.2
В 1
{2}
н/о н/о +4.1 +2.6 90 +3 +3 по сезону 994.0 921.0
СВ 2
{4}
30 км 10/10 1500 м
[Sc]
+5.1 +2.3 82 +3 +3 по сезону 993.1 920.4
ЮВ 3
{4}
н/о н/о +5.7 +2.2 78 +3 +3 по сезону 992.2 919.7
ЮВ 3
{5}
н/о н/о +4.6 +2.1 84 +1 +1 по сезону 991.7 919.0
ЮВ 3
{4}
н/о н/о +3.5 +2.0 90 -1 -1 по сезону 991.4 918.4
Ю 1
{3}
н/о н/о +1.6 +1.5 99 -0 -0 по сезону 991.5 918.0
СЗ 1
{3}
н/о н/о -0.6 -0.6 100 -3 -3 прохладно 991.5 917.5
ЮЗ 1
{5}
30 км 8/1 1000 м
[Cu hum Ac lent Ci fib]
-1.3 -1.3 100 -4 -4 прохладно 991.5 917.2 -1.7 +5.9
З 1
{2}
н/о н/о -1.4 -1.4 100 -4 -4 прохладно 991.2 916.9
ЮВ 1
{2}
н/о н/о -1.1 -1.1 100 -3 -3 прохладно 990.7 916.6
СЗ 1
{3}
н/о н/о -0.9 -0.9 100 -3 -3 прохладно 990.4 916.3
В 1
{2}
н/о н/о -0.1 -0.1 100 -2 -2 по сезону 989.8 916.0
СЗ 1
{2}
н/о н/о -0.2 -0.2 100 -3 -3 прохладно 989.7 915.9
СЗ 1
{3}
н/о н/о +0.2 +0.2 100 -2 -2 по сезону 989.4 915.8
ЮЗ 1
{1}
н/о н/о 0.0 0.0 100 -2 -2 по сезону 989.5 915.8
ЮЗ 2
{3}
н/о н/о -0.1 -0.1 100 -4 -4 прохладно 989.5 915.7
ЮЗ 1
{3}
н/о н/о 0.0 0.0 100 -2 -2 по сезону 989.4 915.7
штиль 0
{1}
н/о н/о 0.0 0.0 100 -1 -1 по сезону 989.3 915.6
штиль 0
{1}
н/о н/о +0.1 +0.1 100 -1 -1 по сезону 989.6 915.9
ЮЗ 1
{3}
10 км слаб. переохл. морось (гололёд) 10/4 300 м
[Frnb As op]
+0.3 +0.3 100 -2 -2 по сезону 990.0 916.3 -1.6 +0.3 0.3
Ю 1
{1}
н/о н/о +0.5 +0.5 100 -2 -2 по сезону 990.4 916.7
штиль 0
{1}
н/о н/о +1.1 +1.1 100 -0 -0 по сезону 990.7 917.1
ЮЗ 1
{3}
н/о н/о +2.1 +2.1 100 0 0 по сезону 991.0 917.7
ЮЗ 3
{4}
н/о н/о +2.7 +2.7 100 -2 -2 по сезону 991.2 918.0
ЮЗ 3
{4}
н/о н/о +3.4 +3.1 98 -1 -1 по сезону 991.6 918.5
ЮЗ 3
{4}
25 км 10/5 600 м
[Sc As trans]
+3.8 +2.5 91 -0 0 по сезону 991.9 919.0
СЗ 2
{4}
н/о н/о +4.4 +0.4 75 +2 +2 по сезону 992.2 919.4
З 2
{4}
н/о н/о +4.7 +0.9 76 +2 +2 по сезону 992.5 919.7
СЗ 3
{5}
н/о н/о +3.8 +1.2 83 0 0 по сезону 993.3 920.3
штиль 0
{4}
н/о н/о +2.8 +2.5 98 +2 +2 по сезону 994.2 920.9
СЗ 1 н/о н/о +2.0 +2.0 100 0 0 по сезону 995.0 921.4
С 2
{5}
н/о {морось} н/о +1.9 +1.9 100 -2 -2 по сезону 995.9 922.1 +0.3 +4.7 0.1
З 1
{3}
н/о н/о +1.7 +1.7 100 -0 -0 по сезону 996.4 922.6
СЗ 1
{3}
н/о н/о +1.9 +0.7 92 0 0 по сезону 997.3 923.5
СЗ 6
{8}
н/о н/о +1.5 -0.7 85 -5 -5 холодно 998.2 924.2
З 2
{8}
н/о н/о +1.2 -1.7 81 -2 -2 по сезону 999.3 925.1
З 5
{7}
н/о н/о +0.9 -2.3 79 -5 -5 холодно 1000.0 925.7
СВ 2
{8}
н/о н/о +1.1 -2.5 77 -2 -2 по сезону 1000.5 926.3
ЮЗ 3
{5}
н/о н/о +0.9 -1.6 83 -4 -4 прохладно 1001.5 927.1
З 3
{7}
н/о н/о +0.4 -1.7 86 -4 -4 прохладно 1001.9 927.4
ЮЗ 3
{3}
н/о н/о -0.5 -1.4 94 -5 -5 холодно 1003.2 928.3
СЗ 2
{4}
н/о н/о -0.8 -1.4 96 -5 -5 холодно 1003.8 928.8
ЮЗ 1
{3}
н/о н/о -2.6 -2.6 100 -5 -5 холодно 1004.8 929.2
ЮЗ 2
{7}
55 км 3/3 1000 м
[Cu hum Ci fib]
-3.3 -3.3 100 -8 -8 очень
холодно
1005.6 929.8 -3.6 +2.0
Ю 2
{4}
н/о н/о -1.8 -2.2 97 -6 -6 холодно 1006.1 930.6
Ю 3
{4}
н/о н/о -0.4 -1.9 90 -5 -5 холодно 1006.2 931.1
ЮЗ 3
{4}
н/о н/о +1.7 -2.1 76 -2 -2 по сезону 1006.1 931.6
СЗ 5
{7}
н/о н/о +2.4 -2.9 68 -3 -3 прохладно 1006.6 932.3
СЗ 4
{6}
н/о н/о +4.0 -3.0 60 0 0 по сезону 1006.7 932.7
Ю 2
{7}
55 км 4/4 1000 м
[Cu hum Ci fib]
+4.5 -2.3 61 +2 +3 по сезону 1007.0 933.1
ЮЗ 2
{5}
н/о н/о +4.9 -3.6 54 +3 +3 по сезону 1007.2 933.5
Ю 2
{4}
н/о н/о +4.9 -2.9 57 +3 +3 по сезону 1007.5 933.7
ЮЗ 2
{4}
н/о н/о +4.0 -3.0 60 +2 +2 по сезону 1007.7 933.7
В 1
{3}
н/о н/о +0.6 -3.7 73 -1 -1 по сезону 1008.9 933.9
В 1
{3}
н/о н/о -2.4 -3.4 93 -5 -5 холодно 1010.4 934.4
Ю 1
{5}
55 км ясно -4.1 -4.1 100 -7 -7 холодно 1011.2 934.8 -4.1 +5.4
СЗ 1
{2}
н/о н/о -4.9 -4.9 100 -7 -7 холодно 1011.2 934.5
штиль 0
{1}
н/о н/о -5.7 -5.7 100 -7 -7 холодно 1011.4 934.5
С 1
{1}
н/о н/о -6.1 -6.1 100 -9 -9 очень
холодно
1011.6 934.5
СЗ 1
{2}
н/о н/о -7.5 -7.5 100 -10 -10 очень
холодно
1011.5 934.1
В 1
{2}
н/о н/о -7.6 -7.6 100 -10 -10 очень
холодно
1011.1 933.7
штиль 0
{2}
н/о н/о -7.9 -7.9 100 -9 -9 очень
холодно
1010.9 933.4
штиль 0
{2}
н/о н/о -7.4 -7.4 100 -8 -8 очень
холодно
1010.6 933.3
штиль 0
{1}
н/о н/о -6.0 -6.0 100 -7 -7 холодно 1009.8 932.9
штиль 0
{1}
н/о н/о -5.8 -5.8 100 -7 -7 холодно 1009.3 932.5
СЗ 1
{2}
н/о н/о -6.5 -6.5 100 -9 -9 очень
холодно
1009.4 932.4
ЮЗ 1
{2}
н/о н/о -4.8 -4.8 100 -7 -7 холодно 1009.3 932.8
С 1
{2}
25 км 9/9 600 м
[Sc]
-4.8 -4.8 100 -7 -7 холодно 1009.5 933.0 -8.4 -3.8
штиль 0
{1}
н/о н/о -3.7 -3.7 100 -5 -5 холодно 1009.7 933.5
штиль 0
{1}
н/о н/о -2.5 -2.5 100 -4 -4 прохладно 1009.9 933.9
штиль 0
{1}
н/о н/о -0.8 -0.8 100 -2 -2 по сезону 1010.0 934.5
СВ 1
{1}
н/о н/о +1.2 +0.4 94 -1 -1 по сезону 1010.1 935.2
СВ 1
{2}
н/о н/о +3.2 -0.2 78 +2 +2 по сезону 1010.0 935.5
Ю 2
{3}
25 км 9/9 600 м
[Sc]
+4.4 0.0 73 +2 +2 по сезону 1010.0 935.9
СЗ 1
{3}
н/о н/о +4.9 +0.3 72 +4 +4 по сезону 1010.3 936.3
ЮЗ 3
{5}
н/о н/о +5.6 -0.4 65 +3 +3 по сезону 1010.5 936.7
ЮЗ 2
{5}
н/о н/о +5.3 -0.7 65 +3 +3 по сезону 1011.1 937.1
Ю 2
{3}
н/о н/о +1.6 -1.1 82 -2 -2 по сезону 1012.8 937.8
ЮВ 1
{3}
н/о н/о -1.9 -2.0 99 -4 -4 прохладно 1014.8 938.6
штиль 0
{5}
н/о н/о -3.3 -3.3 100 -5 -5 холодно 1015.8 939.2 -4.9 +5.9
штиль 0
{2}
н/о н/о -3.7 -3.7 100 -5 -5 холодно 1016.6 939.8
СЗ 1
{1}
н/о н/о -5.8 -5.8 100 -8 -8 очень
холодно
1017.7 940.3
штиль 0
{1}
н/о н/о -6.1 -6.1 100 -7 -7 холодно 1018.3 940.7
штиль 0
{1}
н/о н/о -6.4 -6.4 100 -7 -7 холодно 1018.8 941.1
штиль 0
{1}
н/о н/о -7.4 -7.4 100 -8 -8 очень
холодно
1019.5 941.5
штиль 0
{2}
н/о н/о -8.1 -8.3 98 -9 -9 очень
холодно
1020.0 941.8
штиль 0
{1}
н/о н/о -7.6 -7.7 99 -8 -8 очень
холодно
1019.9 941.9
штиль 0
{1}
н/о н/о -8.8 -9.0 98 -9 -9 очень
холодно
1020.6 942.1
штиль 0
{1}
н/о н/о -7.7 -7.7 100 -9 -9 очень
холодно
1020.3 942.1
штиль 0
{1}
н/о н/о -6.5 -6.5 100 -8 -8 очень
холодно
1019.8 942.0
штиль 0
{1}
н/о н/о -5.9 -5.9 100 -7 -7 холодно 1019.2 941.6
штиль 0
{1}
400 м переохл. туман ?/? -5.2 -5.2 100 -6 -6 холодно 1019.4 942.1 -9.1 -3.2
СЗ 1
{1}
н/о н/о -5.1 -5.1 100 -8 -8 очень
холодно
1019.4 942.0
штиль 0
{1}
н/о н/о -4.1 -4.1 100 -5 -5 холодно 1019.2 942.1
штиль 0
{2}
н/о н/о -3.3 -3.3 100 -5 -5 холодно 1018.8 942.0
штиль 0
{1}
н/о н/о -1.8 -1.8 100 -3 -3 прохладно 1018.3 941.9
штиль 0
{1}
н/о н/о -0.7 -0.7 100 -2 -2 по сезону 1017.5 941.4
СЗ 1
{2}
25 км 10/10 1000 м
[Sc]
+0.2 +0.2 100 -2 -2 по сезону 1016.6 940.9
СЗ 1
{2}
н/о н/о +1.8 +1.8 100 -0 -0 по сезону 1015.9 940.6
ЮВ 2
{4}
н/о н/о +3.5 +2.6 94 0 0 по сезону 1015.1 940.4
Ю 1
{2}
н/о н/о +2.9 +2.9 100 +1 +1 по сезону 1014.6 939.8
ЮВ 2
{3}
н/о н/о +3.2 +2.3 94 0 0 по сезону 1014.4 939.6
ЮВ 3
{5}
н/о н/о +2.5 +2.5 100 -2 -2 по сезону 1014.6 939.7
ЮВ 3
{5}
30 км 8/0
[Ac As]
+2.5 +2.5 100 -2 -2 по сезону 1014.5 939.6 -5.4 +3.7
В 2
{5}
н/о н/о +2.7 +2.3 97 -1 -1 по сезону 1014.4 939.5
штиль 0
{3}
н/о н/о +2.4 +2.3 99 +1 +1 по сезону 1014.6 939.6
ЮВ 1
{3}
н/о н/о +2.0 +2.0 100 0 0 по сезону 1014.3 939.2
ЮВ 1
{2}
н/о н/о +2.4 +2.4 100 0 0 по сезону 1013.9 939.0
В 1
{3}
н/о н/о +2.4 +2.4 100 0 0 по сезону 1013.4 938.5
В 4
{5}
н/о н/о +2.8 +2.1 95 -2 -2 по сезону 1013.0 938.2
ЮВ 3
{5}
н/о н/о +2.6 +2.2 97 -2 -2 по сезону 1012.6 937.8
Ю 1
{5}
н/о н/о +2.2 +1.8 97 0 0 по сезону 1012.4 937.5
ЮВ 1
{2}
н/о н/о +1.9 +1.8 99 -0 -0 по сезону 1012.1 937.2
ЮВ 1
{4}
н/о н/о +2.2 +1.8 97 0 0 по сезону 1011.9 937.1
ЮВ 1
{4}
н/о н/о +2.1 +1.5 96 0 0 по сезону 1011.7 936.9
В 3
{5}
20 км 5/4 1000 м
[Sc Ci fib]
+2.2 +1.5 95 -2 -2 по сезону 1011.7 936.9 +1.7 +2.9
В 3
{7}
н/о н/о +2.2 +1.5 95 -2 -2 по сезону 1012.0 937.1
ЮВ 4
{7}
н/о н/о +2.2 +1.6 96 -3 -3 прохладно 1011.6 936.8
В 3
{7}
н/о н/о +2.5 +1.6 94 -2 -2 по сезону 1011.7 937.0
ЮВ 5
{8}
н/о н/о +2.6 +1.4 92 -3 -3 прохладно 1011.3 936.6
В 4
{8}
н/о н/о +3.0 +1.4 89 -2 -2 по сезону 1010.8 936.3
В 6
{8}
29 км 10/10 600 м
[Sc]
+3.0 +1.5 90 -3 -3 прохладно 1010.8 936.3
ЮВ 4
{8}
н/о н/о +3.0 +1.7 91 -2 -2 по сезону 1010.6 936.1
ЮВ 3
{7}
н/о н/о +2.9 +1.6 91 -1 -1 по сезону 1010.6 936.1
В 5
{8}
н/о н/о +2.4 +1.8 96 -3 -3 прохладно 1010.6 935.9
ЮВ 2
{7}
н/о н/о +1.6 +1.6 100 -2 -2 по сезону 1011.0 936.0
Местоположение метеостанции Рёрус аэропорт (Норвегия): широта 62.58 долгота 11.35 высота над уровнем моря 625 м.
В архиве по умолчанию представлена погода в Рёрус аэропорту за последнюю неделю. Архивные данные за месяц целиком и за предыдущие месяцы, начиная с января 2011 года, Вы можете получить, выбрав интересующий диапазон дат из раскрывающегося списка и нажав кнопку "Найти!".
*Определитесь, кто Вы:
Внимание! Время в таблицах - всемирное. Для получения местного времени необходимо прибавить поправку, которая равна 1 ч.
Смотрите также архив погоды в соседних городах и на ближайших метеорологических станциях:
Партнеры нашего сайта:      
Пояснения к столбцам:
  • Ветер - указаны скорость ветра в м/с - средняя за 10 мин, порывы в срок и между сроками (в фигурных скобках) и направление, откуда дует ветер: С - северный,
  • СВ - северо-восточный, В - восточный, ЮВ - юго-восточный, Ю - южный, ЮЗ - юго-западный, З - западный, СЗ - северо-западный.
  • Видимость - горизонтальная дальность видимости в метрах или километрах. При видимости от 1 до 10 км при отсутствии осадков обычно наблюдается дымка, при ухудшении видимости до 1 км и менее - туман. В сухую погоду видимость может ухудшаться дымом, пылью или мглою.
  • Явления - указаны атмосферные явления, наблюдавшиеся в срок или в последний час перед сроком; фигурными скобками обозначены явления, наблюдавшиеся между сроками (за 1-3 часа до срока); квадратными скобками обозначены град или гололедные отложения с указанием их диаметра в мм.
  • Облачность - указаны через наклонную черту общая и нижняя облачность в баллах и высота нижней границы облаков в метрах; квадратными скобками обозначены формы облаков: Ci - перистые, Cs - перисто-слоистые, Cc - перисто-кучевые, Ac - высококучевые, As - высокослоистые, Sc - слоисто-кучевые, Ns - слоисто-дождевые, Cu - кучевые, Cb - кучево-дождевые. Подробнее классификацию облаков см. в Атласе облаков (PDF).
  • T - Температура воздуха - температура, измеренная на высоте 2 м над землей.
  • Td - Температура точки росы - температура, при понижении до которой содержащийся в воздухе водяной пар достигнет насыщения.
  • f - Относительная влажность воздуха - влажноcть воздуха, измеренная на высоте 2 м над землей.
  • Te - Эффективная температура - температура, которую ощущает одетый по сезону человек в тени. Характеристика душности погоды. При расчете учитывается влияние влажности воздуха и скорости ветра на теплоощущения человека.
  • Tes - Эффективная температура на солнце - температура, которую ощущает человек, с поправкой на солнечный нагрев. Характеристика знойности погоды. Зависит от высоты солнца над горизонтом, облачности и скорости ветра. Ночью, в пасмурную погоду, а также при ветре 12 м/с и более поправка равна нулю.
  • P - Атмосферное давление - приведенное к уровню моря атмосферное давление.
  • Po - Атмосферное давление - измеренное на уровне метеостанции атмосферное давление.
  • Tmin - Минимальная температура - минимум температуры воздуха на высоте 2 м над землей.
  • Tmax - Максимальная температура - максимум температуры воздуха на высоте 2 м над землей.
  • R - Количество осадков - Количество выпавших осадков за период времени, мм. При наведении курсора мыши на число - период времени, за который выпало указанное количество осадков.
  • R24 - Количество осадков - Количество выпавших осадков за 24 часа, мм.
  • S - Снежный покров - Высота снежного покрова, см. При наведении курсора мыши на число - состояние снежного покрова и степень покрытия местности в баллах.